Weather History for K1V4 - November, 2012

Change the Weather History Date:

Thursday, November 1, 2012

  Actual Average Record
Temperature  
Mean Temperature 45 °F 42 °F  
Max Temperature 47 °F 51 °F 69 °F (1914)
Min Temperature 43 °F 32 °F 12 °F (1913)
Degree Days  
Heating Degree Days 20 23  
Month to date heating degree days 20 23  
Since 1 July heating degree days 747 810  
Cooling Degree Days 0 0  
Month to date cooling degree days 0 0  
Year to date cooling degree days 377 433  
Moisture  
Dew Point 38 °F    
Average Humidity 77    
Maximum Humidity 89    
Minimum Humidity 65    
Precipitation  
Precipitation 0.00 in 0.12 in 1.35 in (1942)
Month to date precipitation 0.00 0.12  
Year to date precipitation 29.69 33.14  
Sea Level Pressure  
Sea Level Pressure 29.48 in    
Wind  
Wind Speed - (North)    
Max Wind Speed -    
Max Gust Speed -    
T = Trace of Precipitation, MM = Missing Value Source: NWS Daily Summary

Daily Weather History Graph

Daily Weather History Graph

Search for Another Location

Airport or City:

Trip Planner

Search our weather history database for the weather conditions in past years. The results will help you decide how hot, cold, wet, or windy it might be!

Date:

Astronomy

Nov. 01, 2012 Rise Set
Actual Time 7:25 AM EDT 5:36 PM EDT
Civil Twilight 6:55 AM EDT 6:06 PM EDT
Nautical Twilight 6:21 AM EDT 6:41 PM EDT
Astronomical Twilight 5:47 AM EDT 7:15 PM EDT
Moon 7:26 PM EDT 10:01 AM EDT
Length of Visible Light 11h 11m
Length of Day
10h 10m
Waning Gibbous, 93% of the Moon is Illuminated
Nov 1
Waning Gibbous
Nov 6
Last Quarter
Nov 13
New
Nov 20
First Quarter
Nov 28
Full

Hourly Weather History & Observations

Time (EDT) Temp. Dew Point Humidity Pressure Visibility Wind Dir Wind Speed Gust Speed Precip Events Conditions
12:54 AM 46.0 °F 39.0 °F 76% 29.48 in - North - - N/A   Unknown
1:54 AM 45.0 °F 39.9 °F 82% 29.48 in - North - - N/A   Unknown
2:54 AM 44.1 °F 41.0 °F 89% 29.48 in - North - - N/A   Unknown
3:54 AM 45.0 °F 39.9 °F 82% 29.47 in - North - - N/A   Unknown
4:54 AM 45.0 °F 37.9 °F 76% 29.47 in - North - - N/A   Unknown
5:54 AM 45.0 °F 37.9 °F 76% 29.47 in - North - - N/A   Unknown
6:54 AM 44.1 °F 37.0 °F 76% 29.48 in - North - - N/A   Unknown
7:54 AM 44.1 °F 37.0 °F 76% 29.48 in - North - - N/A   Unknown
8:54 AM 44.1 °F 37.0 °F 76% 29.49 in - North - - N/A   Unknown
9:54 AM 44.1 °F 36.0 °F 73% 29.49 in - North - - N/A   Unknown
10:54 AM 44.1 °F 36.0 °F 73% 29.49 in - North - - N/A   Unknown
11:54 AM 46.0 °F 36.0 °F 68% 29.49 in - North - - N/A   Unknown
12:54 PM 46.9 °F 36.0 °F 66% 29.47 in - North - - N/A   Unknown
1:54 PM 46.9 °F 36.0 °F 66% 29.46 in - North - - N/A   Unknown
2:54 PM 46.9 °F 36.0 °F 66% 29.46 in - North - - N/A   Unknown
3:54 PM 46.9 °F 37.0 °F 68% 29.46 in - North - - N/A   Unknown
4:54 PM 46.9 °F 37.0 °F 68% 29.47 in - North - - N/A   Unknown
5:54 PM 46.0 °F 37.0 °F 71% 29.47 in - North - - N/A   Unknown
6:54 PM 45.0 °F 37.9 °F 76% 29.49 in - North - - N/A   Unknown
7:54 PM 45.0 °F 39.0 °F 80% 29.49 in - North - - N/A   Unknown
8:54 PM 45.0 °F 39.0 °F 80% 29.49 in - North - - N/A   Unknown
9:54 PM 45.0 °F 39.9 °F 82% 29.49 in - North - - N/A   Unknown
10:54 PM 44.1 °F 39.9 °F 85% 29.49 in - North - - N/A   Unknown
11:54 PM 44.1 °F 39.9 °F 85% 29.49 in - North - - N/A   Unknown